Tracking 19572 objects as of 24-Feb-2019
HD Live streaming from Space Station
objects crossing your sky now

RADUGA 26

Track RADUGA 26 now!
RADUGA 26 is classified as:


NORAD ID: 21016
Int'l Code: 1990-112A
Perigee: 35,768.1 km
Apogee: 35,826.3 km
Inclination: 14.9 °
Period: 1,436.3 minutes
Semi major axis: 42168 km
RCS: 2.5118 m2 (large)
Launch date: December 20, 1990
Source: Commonwealth of Independent States (former USSR) (CIS)
Launch site: TYURATAM MISSILE AND SPACE COMPLEX (TTMTR)
aabbcc
Your satellite tracking list
Your tracking list is empty




NASA's NSSDC Master Catalog

Two Line Element Set (TLE):
1 21016U 90112A   19053.32216466 -.00000306  00000-0  00000+0 0  9990
2 21016  14.9000 359.7665 0006903   6.0802 358.2438  1.00259362103455
Source of the keplerian elements: AFSPC